Home   Weather   Manama   Past weeks

Flag for Bahrain Past Weather in Manama, Bahrain — Yesterday and Last 2 Weeks

Now
68 °F

Passing clouds.


Feels Like: 68 °F
Forecast: 58 / 67 °F
Wind: 20 mph from Northwest

Location: Bahrain International Airport

Current Time: Jan 17, 2017 at 4:22:04 pm

Latest Report: Jan 17, 2017 at 3:00 pm


Visibility: N/A

Pressure: 30.07 "Hg

Humidity: 60%

Dew Point: 54 °F

Location of ManamaLocation

Past Weather in Manama — Graph

°F

Manama Temperature Yesterday

Maximum temperature yesterday: 73 °F (at 2:00 pm)
Minimum temperature yesterday: 63 °F (at 12:00 am)
Average temperature yesterday: 66 °F

High & Low Weather Summary for the Past Weeks

 TemperatureHumidityPressure
High79 °F (Jan 9, 2:00 pm)94% (Jan 3, 5:00 am)30.18 "Hg (Jan 3, 5:00 am)
Low59 °F (Jan 6, 5:00 am)23% (Jan 9, 3:00 pm)29.92 "Hg (Jan 8, 4:00 pm)
Average66 °F68%30.05 "Hg
* Reported Jan 2 3:00 pm — Jan 17 3:00 pm, Manama, Weather by CustomWeather, © 2017

Note: Actual official high and low records may vary slightly from our data, if they occured in-between our weather recording intervals... More about our weather records

Advertising

Manama Weather History for the Previous 24 Hours

Scroll right to see more
 ConditionsComfort  
Time TempWeatherWind HumidityBarometerVisibility
3:00 pm
Tue, Jan 17
68 °FPassing clouds.20 mph60%30.07 "HgN/A
2:00 pm68 °FPassing clouds.21 mph60%30.07 "HgN/A
1:00 pm70 °FScattered clouds.18 mph57%30.09 "HgN/A
12:00 pm68 °FScattered clouds.15 mph69%30.12 "HgN/A
11:00 am66 °FPassing clouds.14 mph73%30.15 "HgN/A
10:00 am66 °FSunny.14 mph73%30.18 "Hg10 mi
9:00 am64 °FClear.15 mph73%30.18 "Hg5 mi
8:00 am63 °FPassing clouds.13 mph83%30.15 "Hg4 mi
7:00 am63 °FPassing clouds.8 mph83%30.15 "HgN/A
6:00 am63 °FClear.9 mph83%30.12 "Hg10 mi
5:00 am64 °FClear.14 mph73%30.12 "Hg10 mi
4:00 am64 °FClear.13 mph68%30.12 "Hg10 mi
3:00 am64 °FClear.13 mph68%30.12 "Hg10 mi
2:00 am64 °FClear.10 mph73%30.09 "Hg10 mi
1:00 am66 °FClear.10 mph68%30.09 "Hg10 mi
12:00 am66 °FClear.9 mph73%30.09 "Hg10 mi
11:00 pm
Mon, Jan 16
66 °FClear.7 mph73%30.09 "Hg10 mi
10:00 pm66 °FClear.6 mph73%30.09 "Hg10 mi
9:00 pm66 °FClear.6 mph78%30.09 "Hg10 mi
8:00 pm66 °FClear.6 mph73%30.09 "Hg10 mi
7:00 pm66 °FClear.7 mph78%30.09 "Hg10 mi
6:00 pm66 °FClear.7 mph78%30.07 "Hg10 mi
5:00 pm68 °FSunny.9 mph69%30.04 "Hg10 mi
4:00 pm68 °FSunny.9 mph69%30.04 "Hg10 mi
Weather by CustomWeather, © 2017

See weather overviewHow to use our weather pages